[[{"header":{"parameterUnit":"m.s-1","parameterCategory":1,"la1":30.2991,"la2":30.254,"lo1":-89.0895,"lo2":-89.0444,"dy":0.0017,"dx":0.0017,"nx":28,"ny":28,"refTime":"2025-04-03T03:00:00:Z","depth":0,"parameterNumber":2,"parameterNumberName":"U-component_of_WINDS"},"data":[0,0,0,0,0,0,0,0,0,0,0,0,0,0,0,0,0,0,0,0,0,0,0,0,0,0,0,0,0,0,0,0,0,0,0,0,0,0,0,0,0,0,0,0,0,0,0,0,0,0,0,0,0,0,0,0,0,0,-5.1495,-5.1496,0,-5.1635,-5.1637,-5.1638,-5.1657,-5.1655,-5.1654,-5.1653,-5.1797,-5.1802,-5.1807,0,0,0,0,0,0,0,0,0,0,0,0,0,-5.1243,-5.1248,-5.1494,-5.1496,-5.1498,-5.1635,-5.1637,-5.1639,-5.1657,-5.1655,-5.1654,-5.1652,-5.1796,-5.1802,-5.1808,0,0,0,0,0,0,0,0,0,0,0,0,0,-5.1365,-5.1249,-5.1494,-5.1524,-5.1528,-5.1635,-5.1637,-5.1639,-5.1657,-5.1655,-5.1653,-5.1651,-5.1794,-5.1801,-5.1809,-5.1896,0,0,-5.1832,-5.1835,0,0,0,0,0,0,0,0,-5.1358,-5.1374,-5.1517,-5.1522,-5.1526,-5.1626,-5.1601,-5.1725,-5.1658,-5.1608,-5.1653,-5.165,-5.1742,-5.1754,-5.1785,-5.1903,-5.1909,-5.1833,-5.1837,-5.1841,-5.1843,0,0,0,0,0,0,0,-5.135,-5.1368,-5.155,-5.152,-5.1525,-5.153,-5.1545,-5.1625,-5.1685,-5.1612,-5.1614,-5.163,-5.1744,-5.1777,-5.1788,-5.1911,-5.1832,-5.1839,-5.1844,-5.1847,-5.2109,-5.2112,0,0,0,0,0,0,-5.1336,-5.1361,-5.1546,-5.1554,-5.1436,-5.1536,-5.1553,-5.1596,-5.1684,-5.1695,-5.1632,-5.1631,-5.1765,-5.1779,-5.1793,-5.1901,-5.184,-5.1848,-5.1852,-5.2107,-5.211,-5.2112,0,0,0,0,0,0,-5.133,-5.1352,-5.154,-5.1458,-5.1483,-5.1543,-5.1591,-5.16,-5.1633,-5.1699,-5.1709,-5.1654,-5.1764,-5.1783,-5.1871,-5.1906,-5.1851,-5.1858,-5.2104,-5.2108,-5.2111,-5.2118,0,0,0,0,0,0,-5.1323,-5.135,-5.1383,-5.1459,-5.1487,-5.1614,-5.1593,-5.1604,-5.1646,-5.1646,-5.1723,-5.1734,-5.1764,-5.1859,-5.1878,-5.1916,-5.1864,-5.2101,-5.2106,-5.211,-5.2115,-5.2121,-5.2127,0,0,0,0,0,-5.1314,-5.1379,-5.1385,-5.1407,-5.153,-5.1616,-5.1632,-5.1666,-5.1649,-5.1683,-5.1726,-5.1731,-5.19,-5.1868,-5.189,-5.193,-5.2099,-5.2104,-5.211,-5.2112,-5.212,-5.2127,0,0,0,0,0,0,-5.1306,-5.139,-5.1396,-5.1488,-5.1545,-5.1619,-5.1663,-5.1673,-5.1736,-5.1733,-5.1772,-5.1789,-5.1875,-5.1912,-5.1875,-5.202,-5.1998,-5.2008,-5.1992,-5.2001,-5.2007,-5.1995,-5.187,0,0,0,0,0,-5.1315,-5.1378,-5.1448,-5.1522,-5.155,-5.1602,-5.1641,-5.1662,-5.1722,-5.1746,-5.1795,-5.1854,-5.192,-5.1963,-5.2028,-5.2121,-5.2138,-5.216,-5.2166,-5.2171,-5.2178,-5.2231,-5.2241,-5.213,-5.213,-5.213,0,0,-5.1333,-5.1387,-5.1424,-5.1522,-5.1568,-5.1633,-5.1622,-5.169,-5.1739,-5.1757,-5.1842,-5.1881,-5.1949,-5.204,-5.2083,-5.2073,-5.2213,-5.2178,-5.2181,-5.2186,-5.2237,-5.2248,-5.2257,-5.2134,-5.2133,-5.2132,0,0,-5.14,-5.1448,-5.1515,-5.1562,-5.1633,-5.1667,-5.1683,-5.1757,-5.1782,-5.1869,-5.1884,-5.1943,-5.2057,-5.2105,-5.2144,-5.2232,-5.2239,-5.2252,-5.2283,-5.2334,-5.2342,-5.235,-5.2381,-5.2392,-5.226,-5.226,-5.226,0,-5.1415,-5.1512,-5.1548,-5.1617,-5.1659,-5.1679,-5.1748,-5.1792,-5.188,-5.1909,-5.1898,-5.2042,-5.2089,-5.2192,-5.2213,-5.2245,-5.2264,-5.2242,-5.2338,-5.2347,-5.2355,-5.2384,-5.2396,-5.2261,-5.2261,-5.2261,-5.2261,0,-5.1526,-5.1594,-5.164,-5.1724,-5.1773,-5.1841,-5.1887,-5.1932,-5.195,-5.1986,-5.2074,-5.2133,-5.2209,-5.2236,-5.2254,-5.2342,-5.2334,-5.233,-5.2308,-5.2366,-5.2394,-5.2406,-5.2262,-5.2262,-5.2262,-5.2262,0,0,-5.1589,-5.1694,-5.171,-5.1749,-5.183,-5.1883,-5.1953,-5.2028,-5.2066,-5.2127,-5.2186,-5.2283,-5.228,-5.2325,-5.2349,-5.2394,-5.2459,-5.2385,-5.2387,-5.2396,-5.2559,-5.256,-5.2573,-5.2466,-5.2468,-5.247,-5.2553,0,-5.1664,-5.1788,-5.1823,-5.1928,-5.1991,-5.2013,-5.2074,-5.213,-5.2166,-5.2226,-5.2266,-5.2333,-5.2325,-5.2352,-5.2398,-5.2442,-5.2492,-5.2437,-5.2521,-5.2524,-5.2501,-5.2588,-5.2588,-5.2664,-5.2565,-5.2567,-5.2568,0,-5.1768,-5.1831,-5.1941,-5.2015,-5.2043,-5.2097,-5.2169,-5.2226,-5.2291,-5.2314,-5.2365,-5.2386,-5.246,-5.2436,-5.2539,-5.25,-5.2538,-5.2565,-5.2569,-5.2576,-5.2547,-5.2596,-5.2689,-5.2699,-5.2586,-5.2585,-5.2583,0,-5.1801,-5.1914,-5.1995,-5.2028,-5.2116,-5.2153,-5.2192,-5.2255,-5.2298,-5.2362,-5.2391,-5.2463,-5.2502,-5.2558,-5.2598,-5.2577,-5.2697,-5.2677,-5.2718,-5.2717,-5.2741,-5.2738,-5.2839,-5.2768,-5.2768,-5.2768,-5.2767,0,-5.188,-5.1946,-5.2011,-5.206,-5.2136,-5.2177,-5.2251,-5.2291,-5.2348,-5.2406,-5.243,-5.2484,-5.2534,-5.2596,-5.2628,-5.2708,-5.2726,-5.2747,-5.2754,-5.2743,-5.2741,-5.2767,-5.2762,-5.2771,-5.277,-5.2769,-5.2769,0,-5.1928,-5.1974,-5.2064,-5.214,-5.2161,-5.2214,-5.2279,-5.2329,-5.2367,-5.244,-5.246,-5.2519,-5.2593,-5.2639,-5.2733,-5.2754,-5.2842,-5.2849,-5.282,-5.2823,-5.2861,-5.2856,-5.298,-5.2999,-5.2917,-5.2918,-5.2918,0,-5.1974,-5.2026,-5.2109,-5.2149,-5.2188,-5.2253,-5.2298,-5.2342,-5.2387,-5.2466,-5.2506,-5.2581,-5.2643,-5.276,-5.2812,-5.2884,-5.2891,-5.293,-5.2902,-5.289,-5.2891,-5.2886,-5.2891,-5.2934,-5.2935,-5.2935,-5.2936,0,-5.2051,-5.2072,-5.2135,-5.2207,-5.226,-5.2318,-5.2377,-5.2409,-5.2463,-5.2513,-5.2588,-5.2637,-5.2733,-5.2807,-5.2884,-5.2924,-5.2939,-5.2945,-5.2958,-5.2946,-5.2927,-5.2937,-5.283,-5.2941,-5.294,-5.294,-5.294,-5.2939,-5.2099,-5.2146,-5.2212,-5.2282,-5.2331,-5.2385,-5.2436,-5.248,-5.2544,-5.2625,-5.2647,-5.2726,-5.2792,-5.2897,-5.2939,-5.3002,-5.2996,-5.3016,-5.302,-5.3024,-5.3024,-5.2919,-5.3016,-5.3016,-5.3016,-5.3016,-5.3016,0,-5.2176,-5.222,-5.2284,-5.2365,-5.2421,-5.2431,-5.2497,-5.2542,-5.2611,-5.2671,-5.2732,-5.2819,-5.2892,-5.295,-5.3025,-5.3065,-5.3073,-5.3083,-5.3079,-5.3088,-5.3025,-5.3005,-5.3074,-5.3074,-5.3074,-5.3074,-5.3074,-5.3074,-5.2222,-5.2303,-5.2331,-5.2437,-5.248,-5.2557,-5.2594,-5.2645,-5.2693,-5.2789,-5.2849,-5.2887,-5.2947,-5.3027,-5.3094,-5.311,-5.3136,-5.3144,-5.316,-5.3099,-5.3093,-5.3086,-5.3068,-5.3149,-5.3149,-5.3218,-5.3219,-5.3219]},{"header":{"parameterUnit":"m.s-1","parameterCategory":1,"la1":30.2991,"la2":30.254,"lo1":-89.0895,"lo2":-89.0444,"dy":0.0017,"dx":0.0017,"nx":28,"ny":28,"refTime":"2025-04-03T03:00:00:Z","depth":0,"parameterNumber":3,"parameterNumberName":"V-component_of_WINDS"},"data":[0,0,0,0,0,0,0,0,0,0,0,0,0,0,0,0,0,0,0,0,0,0,0,0,0,0,0,0,0,0,0,0,0,0,0,0,0,0,0,0,0,0,0,0,0,0,0,0,0,0,0,0,0,0,0,0,0,0,5.0753,5.0754,0,5.0844,5.0845,5.0846,5.0893,5.0893,5.0893,5.0893,5.0985,5.0987,5.099,0,0,0,0,0,0,0,0,0,0,0,0,0,5.0618,5.0621,5.0753,5.0754,5.0755,5.0844,5.0845,5.0846,5.0893,5.0893,5.0893,5.0893,5.0984,5.0987,5.099,0,0,0,0,0,0,0,0,0,0,0,0,0,5.069,5.0621,5.0752,5.0789,5.0793,5.0844,5.0845,5.0847,5.0893,5.0893,5.0893,5.0893,5.0983,5.0987,5.099,5.1011,0,0,5.1001,5.1003,0,0,0,0,0,0,0,0,5.0686,5.0695,5.0783,5.0787,5.0791,5.0857,5.0832,5.0902,5.0893,5.0855,5.0893,5.0893,5.0942,5.0949,5.0966,5.1015,5.1019,5.1002,5.1004,5.1005,5.1006,0,0,0,0,0,0,0,5.0681,5.0691,5.0789,5.0784,5.0789,5.0801,5.0811,5.0845,5.0897,5.0858,5.0862,5.0872,5.0945,5.0963,5.0969,5.102,5.1001,5.1005,5.1007,5.1008,5.1093,5.1093,0,0,0,0,0,0,5.067,5.0687,5.0786,5.0792,5.0738,5.0803,5.0815,5.0836,5.0897,5.0906,5.0872,5.0874,5.0956,5.0964,5.0972,5.1002,5.1005,5.1009,5.1011,5.1093,5.1093,5.1093,0,0,0,0,0,0,5.0667,5.0678,5.0782,5.074,5.0754,5.0805,5.0829,5.0838,5.0856,5.0907,5.0917,5.0881,5.0957,5.0967,5.1002,5.1006,5.101,5.1014,5.1093,5.1093,5.1093,5.106,0,0,0,0,0,0,5.0663,5.0677,5.0685,5.074,5.0756,5.081,5.0829,5.084,5.0862,5.0866,5.0918,5.0927,5.0958,5.0996,5.1005,5.1011,5.1016,5.1093,5.1093,5.1093,5.1061,5.1059,5.1058,0,0,0,0,0,5.0658,5.0671,5.0685,5.0697,5.0768,5.081,5.082,5.0855,5.0862,5.0871,5.0905,5.0925,5.1003,5.0999,5.101,5.1016,5.1093,5.1093,5.1093,5.1062,5.106,5.1058,0,0,0,0,0,0,5.0615,5.0679,5.0695,5.0727,5.0763,5.0818,5.083,5.0851,5.0886,5.0887,5.093,5.0941,5.0972,5.0998,5.0992,5.1041,5.105,5.1053,5.1023,5.1021,5.1019,5.1013,5.1019,0,0,0,0,0,5.0609,5.0639,5.0693,5.0716,5.0733,5.0779,5.0798,5.0823,5.0862,5.0877,5.0913,5.0949,5.0982,5.1003,5.1036,5.1065,5.1078,5.1075,5.1073,5.1071,5.1073,5.1092,5.1092,5.1094,5.1094,5.1094,0,0,5.0597,5.0636,5.0652,5.0708,5.0739,5.0769,5.0791,5.0821,5.0844,5.0881,5.0917,5.0944,5.0988,5.102,5.1036,5.1042,5.1076,5.1072,5.107,5.1073,5.1092,5.1092,5.1092,5.1094,5.1094,5.1094,0,0,5.0592,5.0624,5.0647,5.0678,5.0725,5.0755,5.0761,5.0813,5.0833,5.087,5.0899,5.0926,5.0982,5.1012,5.1035,5.1043,5.1063,5.1052,5.1043,5.1061,5.1061,5.1061,5.1065,5.1066,5.1053,5.1053,5.1053,0,5.0571,5.0618,5.0656,5.0686,5.071,5.0747,5.0771,5.0799,5.0853,5.087,5.0876,5.0948,5.0979,5.102,5.1022,5.1039,5.1047,5.1047,5.1058,5.1058,5.1059,5.1063,5.1065,5.1052,5.1052,5.1052,5.1052,0,5.0591,5.0623,5.0636,5.069,5.0716,5.0742,5.0785,5.0806,5.0829,5.0859,5.0896,5.0936,5.0978,5.099,5.1011,5.1034,5.1037,5.105,5.106,5.1057,5.1062,5.1063,5.105,5.105,5.1051,5.1051,0,0,5.056,5.0636,5.0641,5.0666,5.0721,5.0746,5.0775,5.0818,5.0836,5.0872,5.0898,5.0945,5.0958,5.0984,5.101,5.1025,5.1031,5.1037,5.1038,5.1035,5.106,5.1051,5.1052,5.1045,5.1045,5.1045,5.1057,0,5.0564,5.0618,5.0654,5.0694,5.0724,5.076,5.0785,5.0822,5.085,5.0881,5.0912,5.0946,5.0959,5.0975,5.0993,5.1026,5.1036,5.1026,5.1069,5.107,5.1059,5.1054,5.1044,5.1053,5.1059,5.1059,5.1059,0,5.0575,5.0612,5.0655,5.0708,5.0723,5.0744,5.0788,5.0816,5.0858,5.0878,5.0908,5.0934,5.0966,5.0974,5.1019,5.1011,5.1031,5.105,5.1052,5.1058,5.1065,5.1061,5.1056,5.1058,5.1062,5.1062,5.1062,0,5.055,5.0611,5.0645,5.0665,5.0728,5.0743,5.077,5.0812,5.0836,5.0873,5.089,5.093,5.0952,5.0982,5.1019,5.1021,5.1061,5.1071,5.1079,5.1078,5.1086,5.1086,5.1086,5.1097,5.1097,5.1097,5.1097,0,5.0551,5.0576,5.0635,5.0656,5.0686,5.0727,5.0756,5.0785,5.0823,5.0851,5.0883,5.0908,5.0955,5.0986,5.1015,5.1049,5.1058,5.1075,5.1083,5.1073,5.1071,5.1087,5.1088,5.1098,5.1097,5.1097,5.1097,0,5.0528,5.0569,5.0609,5.0665,5.068,5.07,5.0748,5.077,5.0801,5.0836,5.0846,5.0895,5.0933,5.0973,5.1024,5.1044,5.1077,5.1087,5.1063,5.1067,5.1073,5.1073,5.1085,5.1089,5.1096,5.1096,5.1096,0,5.0526,5.0547,5.0606,5.0628,5.0654,5.0688,5.0713,5.0755,5.078,5.083,5.0846,5.0887,5.0922,5.0982,5.1021,5.1061,5.1073,5.1074,5.1079,5.1069,5.1074,5.1073,5.1076,5.1073,5.1073,5.1072,5.1072,0,5.0519,5.0539,5.0574,5.0617,5.0647,5.0682,5.0719,5.0734,5.0783,5.0809,5.085,5.0877,5.093,5.0971,5.1015,5.1043,5.1066,5.107,5.1075,5.1065,5.1051,5.106,5.106,5.107,5.107,5.107,5.107,5.1071,5.0509,5.0529,5.0575,5.0614,5.0646,5.068,5.0704,5.0738,5.0773,5.082,5.0843,5.0883,5.0926,5.0989,5.1016,5.1048,5.1055,5.106,5.1062,5.1063,5.1061,5.1045,5.1056,5.1056,5.1057,5.1057,5.1057,0,5.0505,5.0536,5.0571,5.0622,5.0653,5.0673,5.0715,5.0739,5.0775,5.0813,5.0847,5.0894,5.0934,5.0977,5.102,5.1037,5.1049,5.1047,5.1046,5.1053,5.1052,5.1045,5.1037,5.1037,5.1037,5.1037,5.1037,5.1037,5.0506,5.0543,5.0568,5.0621,5.0653,5.0693,5.0716,5.0747,5.0779,5.083,5.0863,5.0892,5.0932,5.0978,5.1016,5.1027,5.1042,5.1037,5.1052,5.1051,5.1052,5.1054,5.1047,5.104,5.104,5.105,5.105,5.105]}]]